Location: *
(48.8489°N, 2.3218°E)
Time: 08:36:40
(UTC+00:00)

CZ-2C R/B - Pass Details

Date: 23 August 2019
Orbit: 785 x 870 km, 98.3° (Epoch: 21 September)

Event Time Altitude Azimuth Distance (km) Brightness Sun altitude
Rises 21:51:22 0° 8° (N) 3,315 6.5 -24.1°
Reaches altitude 10° 21:53:48 10° 2° (N) 2,391 5.8 -24.3°
Maximum altitude 21:58:43 41° 293° (WNW) 1,169 3.8 -24.8°
Enters shadow 22:03:05 13° 228° (SW) 2,199 4.7 -25.1°
